EHI
0 0 0 0 0 0 0 0 0 0 0 0 0 0 0 0 0 0 0 0 1 3 7 14 18 14 9 7 8 8 8 8 6 4 3 1 0 0 0 0 0 0 0 0 0 0 0 0 0
0 0 0 0 0 0 0 0 0 0 0 0 0 0 0 0 0 0 0 0 0 2 6 12 17 14 8 6 7 8 8 7 6 5 4 2 1 0 0 0 0 0 0 0 0 0 0 0 0
0 0 0 0 0 0 0 0 0 0 0 0 0 0 0 0 0 0 0 1 1 2 4 12 17 15 9 6 5 6 6 6 6 7 6 3 1 0 0 0 0 0 0 0 0 0 0 0 0
0 0 0 0 0 0 0 0 0 0 0 0 0 0 0 1 1 1 1 3 4 3 5 12 18 16 10 5 3 4 6 6 6 6 4 2 1 0 0 0 0 0 0 0 0 1 0 0 0
0 0 0 0 0 0 0 0 0 0 0 0 0 0 0 1 2 2 2 5 5 4 6 12 17 16 11 6 2 3 6 7 5 2 1 1 0 0 0 0 0 0 0 0 0 0 0 0 0
0 0 0 0 0 0 0 0 0 0 0 0 0 0 0 1 3 3 5 6 5 6 7 12 17 16 11 6 3 3 5 7 4 1 1 0 0 0 0 0 0 0 0 0 0 0 0 0 0
0 0 0 0 0 0 0 0 0 0 0 0 0 0 1 2 4 4 6 6 6 8 10 12 14 13 9 5 3 3 4 5 4 3 2 1 0 0 0 0 0 0 0 0 0 0 0 0 0
0 0 0 0 0 0 0 0 0 0 0 0 0 0 1 3 4 4 6 6 7 9 11 12 12 10 7 4 2 2 2 3 3 2 2 1 0 0 0 0 0 0 0 0 0 0 0 0 0
0 0 0 0 0 0 0 0 0 0 0 0 0 0 1 2 3 4 5 6 6 7 11 14 14 12 10 6 2 1 1 1 1 1 1 0 0 0 0 0 0 0 0 0 0 0 0 0 0
0 0 0 0 0 0 0 0 0 0 0 0 0 0 0 1 2 3 4 4 4 6 10 15 17 17 15 10 4 2 1 1 0 0 0 0 0 0 0 0 0 0 0 0 0 0 0 0 0
0 0 0 0 0 0 0 0 0 0 0 0 0 0 0 0 1 1 3 3 4 5 8 12 15 17 15 11 8 5 4 4 2 1 0 0 0 0 0 0 0 0 0 0 0 0 0 0 0
0 0 0 0 0 0 0 0 0 0 0 0 0 0 0 0 0 1 2 3 3 4 5 7 10 12 11 10 10 9 8 6 4 2 0 0 0 0 0 0 0 0 0 0 0 0 0 0 0
0 0 0 0 0 0 0 0 0 0 0 0 0 0 0 0 0 1 2 3 3 2 2 3 5 6 6 7 8 9 9 7 4 1 0 0 0 0 0 0 0 0 0 0 0 0 0 0 0
0 0 0 0 0 0 0 0 0 0 0 0 0 0 0 0 0 0 1 1 2 1 0 1 2 2 3 4 6 8 9 6 2 0 0 0 0 0 0 0 0 0 0 0 0 0 0 0 0
0 0 0 0 0 0 0 0 0 0 0 0 0 0 0 0 0 0 0 0 0 0 0 0 0 1 1 2 4 5 6 4 1 0 0 0 0 0 0 0 0 0 0 0 0 0 0 0 0
0 0 0 0 0 0 0 0 0 0 0 0 0 0 0 0 0 0 0 0 0 0 0 0 0 0 0 1 2 2 2 1 0 0 0 0 0 0 0 0 0 0 0 0 0 0 0 0 0
0 0 0 0 0 0 0 0 0 0 0 0 0 0 0 0 0 0 0 0 0 0 0 0 0 0 0 0 0 0 0 0 0 0 0 0 0 0 0 0 0 0 0 0 0 0 0 0 0
0 0 0 0 0 0 0 0 0 0 0 0 0 0 0 0 0 0 0 0 0 0 0 0 0 0 0 0 0 0 0 0 0 0 0 0 0 0 0 0 0 0 0 0 0 0 0 0 0
0 0 0 0 0 0 0 0 0 0 0 0 0 0 0 0 0 0 0 0 0 0 0 0 0 0 0 0 0 0 0 0 0 0 0 0 0 0 0 0 0 0 0 0 0 0 0 0 0
0 0 0 0 0 0 0 0 0 0 0 0 0 0 0 0 0 0 0 0 0 0 0 0 0 0 0 0 0 0 0 0 0 0 0 0 0 0 0 0 0 0 0 0 0 0 0 0 0
0 0 0 0 0 0 0 0 0 0 0 0 0 0 0 0 0 0 0 0 0 0 0 0 0 0 0 0 0 0 0 0 0 0 0 0 0 0 0 0 0 0 0 0 0 0 0 0 0
0 0 0 0 0 0 0 0 0 0 0 0 0 0 0 0 0 0 0 0 0 0 0 0 0 0 0 0 0 0 0 0 0 0 0 0 0 0 0 0 0 0 0 0 0 0 0 0 0
0 0 0 0 0 0 0 0 0 0 0 0 0 0 0 0 0 0 0 0 0 0 0 0 0 0 0 0 0 0 0 0 0 0 0 0 0 0 0 0 0 0 0 0 0 0 0 0 0
0 0 0 0 0 0 0 0 0 0 0 0 0 0 0 0 0 0 0 0 0 0 0 0 0 0 0 0 0 0 0 0 0 0 0 0 0 0 0 0 0 0 0 0 0 0 0 0 0
0 0 0 0 0 0 0 0 0 0 0 0 0 0 0 0 0 0 0 0 0 0 0 0 0 0 0 0 0 0 0 0 0 0 0 0 0 0 0 0 0 0 0 0 0 0 0 0 0
0 0 0 0 0 0 0 0 0 0 0 0 0 0 0 0 0 0 0 0 0 0 0 0 0 0 0 0 0 0 0 0 0 0 0 0 0 0 0 0 0 0 0 0 0 0 0 0 0
0 0 0 0 0 0 0 0 0 0 0 0 0 0 0 0 0 0 0 0 0 0 0 0 0 0 0 0 0 0 0 0 0 0 0 0 0 0 0 0 0 0 0 0 0 0 0 0 0
0 0 0 0 0 0 0 0 0 0 0 0 0 0 0 0 0 0 0 0 0 0 0 0 0 0 0 0 0 0 0 0 0 0 0 0 0 0 0 0 0 0 0 0 0 0 0 0 0
0 0 0 0 0 0 0 0 0 0 0 0 0 0 0 0 0 0 0 0 0 0 0 0 0 0 0 0 0 0 0 0 0 0 0 0 0 0 0 0 0 0 0 0 0 0 0 0 0
0 0 0 0 0 0 0 0 0 0 0 0 0 0 0 0 0 0 0 0 0 0 0 0 0 0 0 0 0 0 0 0 0 0 0 0 0 0 0 0 0 0 0 0 0 0 0 0 0
Wind_Speed
6 4 3 3 4 4 9 7 5 5 4 2 2 3 4 4 3 2 4 2 3 5 6 8 6 6 6 6 6 6 6 7 7 7 7 8 8 7 7 7 6 6 6 6 6 6 6 6 6
5 3 2 3 6 8 7 8 8 6 1 0 2 4 4 4 1 3 2 2 3 5 6 6 6 6 6 6 6 6 7 7 7 7 7 7 7 7 6 6 6 6 6 6 6 6 6 5 6
2 2 2 3 6 9 6 5 6 4 2 3 2 3 4 2 1 1 2 1 3 5 5 6 6 6 6 6 6 7 7 7 7 6 6 7 7 7 6 6 6 5 5 6 6 6 6 5 5
2 2 2 4 9 8 5 3 2 4 3 3 4 3 2 1 2 2 1 2 4 5 5 7 6 6 6 6 6 7 7 7 7 7 6 6 6 6 6 6 5 5 5 5 6 6 6 6 6
1 2 4 6 9 6 5 4 4 5 4 3 4 5 3 1 1 1 0 2 4 4 5 6 6 6 6 6 6 6 7 7 7 7 7 6 6 6 6 6 6 5 5 5 6 6 6 6 5
1 2 5 7 8 6 5 5 6 7 6 4 4 6 4 1 0 1 0 2 3 4 5 6 6 6 6 6 6 5 6 6 6 6 7 7 6 6 6 5 5 5 5 6 6 6 6 6 5
2 2 5 7 6 7 4 4 7 7 8 6 4 5 3 2 0 1 1 2 2 3 4 5 6 7 6 6 6 5 5 5 5 6 6 6 6 5 5 5 5 5 5 5 6 6 6 5 5
1 2 4 6 7 7 3 4 5 7 7 3 5 6 4 1 0 1 1 2 2 3 3 4 5 6 6 6 6 6 5 5 5 5 6 6 6 5 5 5 5 5 5 5 5 6 5 5 5
2 4 6 6 6 4 3 5 4 5 6 6 6 7 5 1 2 2 2 2 2 3 3 3 4 5 5 5 6 6 6 6 6 6 6 5 5 5 4 5 5 5 5 5 5 6 6 5 5
2 4 6 3 5 5 4 6 5 5 8 9 8 7 6 5 4 5 5 4 4 4 4 3 4 4 5 4 5 5 5 6 5 5 5 3 3 3 4 6 5 5 4 5 5 5 5 3 3
3 5 4 5 6 6 7 7 7 8 11 10 8 7 6 6 7 7 7 6 6 5 4 4 4 4 4 4 4 3 3 4 4 5 4 3 3 3 3 3 4 4 3 3 4 4 2 2 2
4 5 6 5 5 7 8 8 8 12 12 9 8 7 7 8 8 8 7 7 5 5 5 3 4 4 4 4 4 4 3 3 3 4 4 3 2 2 2 2 3 2 2 2 2 1 2 2 2
6 6 6 7 8 8 9 12 11 13 12 10 10 9 9 9 9 8 7 6 6 6 5 5 4 4 3 4 3 3 3 3 4 3 4 3 2 2 2 2 2 2 2 2 2 2 3 2 2
3 6 7 8 9 7 9 11 10 13 9 9 9 9 9 9 9 8 7 7 7 7 6 5 5 4 4 3 3 3 3 3 3 3 4 4 3 2 2 2 2 2 2 2 2 3 3 2 2
4 6 7 6 7 5 6 10 11 11 8 9 9 9 8 7 7 8 8 7 7 6 6 5 5 5 5 4 4 3 3 3 3 3 4 4 3 3 2 2 2 3 3 3 2 3 2 2 2
4 5 5 3 4 4 6 11 6 5 7 9 9 8 7 7 7 7 6 6 6 5 5 5 4 5 5 4 3 3 3 3 3 3 3 4 3 3 2 2 2 2 3 3 3 2 2 2 2
4 5 7 6 3 4 7 11 7 5 8 9 9 8 8 7 6 6 5 5 5 5 5 5 5 4 4 4 3 3 4 3 3 3 3 3 4 3 2 2 2 3 3 3 3 3 2 2 2
4 6 7 8 4 7 10 13 11 9 9 10 9 8 8 7 6 5 4 5 4 4 5 5 5 4 3 3 3 3 4 3 2 2 3 4 3 3 3 2 3 2 3 3 3 4 3 2 2
6 8 10 10 7 8 12 14 13 10 9 10 9 8 8 7 5 3 4 5 5 5 5 5 5 5 4 2 3 3 4 3 2 2 3 4 4 4 3 2 3 2 3 4 4 4 4 3 2
9 10 11 9 5 7 11 14 12 9 10 10 10 9 8 6 5 4 4 5 5 5 6 6 6 6 5 3 2 2 3 3 2 2 2 3 3 3 3 3 3 3 2 4 5 4 3 2 2
10 11 10 9 8 6 9 10 7 7 7 8 9 8 8 7 6 5 5 6 6 6 7 6 6 6 6 5 3 2 2 2 2 3 2 3 3 3 3 3 3 3 3 3 5 5 4 4 3
8 7 9 9 8 5 4 7 6 5 6 7 8 8 7 7 6 5 5 6 7 6 6 6 6 6 6 6 5 6 4 4 3 3 3 3 3 3 3 3 3 3 3 3 4 5 4 5 4
6 4 7 7 7 7 5 6 7 4 6 7 7 7 7 6 6 6 6 6 6 6 6 6 6 6 6 6 6 6 4 3 3 3 4 3 3 3 3 3 3 3 3 3 3 4 5 4 4
4 3 4 5 5 7 5 6 7 4 5 5 6 6 6 6 6 5 5 5 5 6 6 6 6 6 6 6 6 6 6 5 5 5 4 3 2 3 3 3 3 3 3 3 3 4 5 5 5
5 4 3 3 4 5 2 6 9 4 5 6 7 6 6 6 6 6 6 6 6 6 6 6 7 7 6 6 6 6 6 6 6 6 5 4 3 3 4 3 3 3 3 3 3 4 4 5 5
5 5 4 5 5 4 3 8 6 3 4 5 5 5 5 6 6 7 7 7 6 7 7 7 7 7 7 7 6 5 6 4 4 5 5 5 4 3 4 4 3 3 3 3 3 3 3 3 4
5 6 3 4 4 6 6 6 7 3 4 3 4 4 4 4 6 6 7 7 6 6 7 7 7 7 7 6 6 5 5 5 4 4 4 4 3 3 4 4 4 3 3 4 4 3 3 3 4
4 4 4 5 5 7 6 6 4 3 3 2 2 3 3 3 4 5 6 6 6 5 6 6 7 7 6 6 5 4 4 4 4 4 4 4 4 3 4 4 4 4 4 4 4 3 3 4 4
7 6 6 4 5 5 6 4 1 3 3 3 3 3 2 3 4 5 5 5 5 5 6 6 6 6 6 6 6 5 4 4 4 4 4 4 4 4 4 4 4 4 4 4 4 4 4 4 4
7 8 8 6 6 6 6 6 1 2 2 3 3 2 2 2 3 4 4 5 5 5 5 6 6 6 6 6 5 5 4 4 5 4 4 4 4 4 4 4 4 4 4 4 4 4 5 5 5
Wind_Direction
332 321 277 227 209 217 231 217 214 201 204 235 254 244 247 244 264 29 55 91 129 149 152 156 153 151 148 144 144 136 140 143 141 140 137 134 131 127 126 123 119 112 108 104 103 102 100 100 102
332 308 231 220 229 221 221 215 212 212 204 278 231 238 239 232 354 34 60 82 154 155 155 159 151 153 152 149 147 142 138 141 144 142 138 134 131 127 123 124 121 114 108 104 98 98 99 99 100
321 317 234 212 227 233 217 189 214 215 226 229 226 245 258 258 61 45 35 162 169 159 160 150 151 154 157 155 152 148 141 140 141 140 138 135 133 130 126 118 117 113 109 107 103 99 98 100 100
268 186 210 230 228 234 246 199 205 214 208 231 241 229 211 7 352 14 41 176 171 164 163 150 152 154 157 156 155 153 147 142 136 136 135 136 138 134 126 120 111 111 111 110 106 99 96 94 96
275 214 209 227 238 234 238 246 235 237 225 220 239 247 231 131 353 23 98 183 178 172 167 159 157 156 154 155 160 157 152 147 142 143 142 137 138 136 129 122 118 115 115 116 111 105 100 96 94
172 218 225 233 235 232 235 238 243 249 244 237 244 251 241 152 332 353 247 203 186 178 177 166 160 159 159 156 156 159 155 148 144 143 146 140 129 125 121 120 121 119 117 119 115 111 103 97 95
212 220 242 248 251 245 237 239 241 250 247 240 244 247 223 192 0 282 225 211 193 181 180 173 175 168 163 156 154 154 150 144 138 133 133 130 126 123 119 112 110 111 111 115 115 108 103 96 91
289 219 231 238 245 249 234 237 249 257 260 259 244 243 234 206 303 257 215 203 199 187 182 176 180 176 174 167 148 141 138 134 126 116 111 113 120 121 119 120 107 105 102 108 113 108 105 96 89
219 224 235 236 244 248 219 242 254 265 256 245 243 261 278 260 249 239 231 222 215 202 190 177 182 180 176 171 148 142 133 127 128 121 115 135 150 146 145 106 100 105 101 101 109 112 109 110 103
216 233 242 253 256 262 250 259 264 257 253 247 241 251 255 254 245 238 235 228 222 215 205 191 188 181 176 168 158 162 156 151 156 146 151 158 146 136 127 104 94 100 102 106 101 114 135 168 134
216 242 256 258 261 263 260 260 253 252 255 250 254 260 255 254 250 241 241 235 225 215 208 204 189 180 174 165 164 161 159 159 156 151 152 150 142 142 150 146 138 137 149 137 132 152 145 134 122
230 246 256 263 266 261 261 261 252 246 254 270 274 270 260 255 252 245 241 240 231 218 209 203 196 179 168 168 165 161 158 162 153 152 154 158 151 159 155 162 153 155 150 147 154 144 133 131 136
237 254 261 265 268 264 264 257 260 259 256 266 266 260 252 249 251 248 244 240 234 223 211 200 190 184 163 165 165 159 160 162 152 152 162 162 162 160 152 155 160 156 146 157 152 150 140 133 117
261 269 273 272 269 262 258 264 254 255 253 253 250 252 252 248 250 250 242 233 229 222 213 201 184 178 165 163 162 160 162 155 153 152 155 162 161 162 158 147 162 156 156 151 159 147 148 137 129
266 275 273 257 260 258 259 258 239 249 244 246 249 252 251 250 249 247 243 235 228 221 212 201 184 174 164 157 163 157 157 148 148 146 151 154 155 156 158 148 161 162 162 155 151 142 139 133 135
244 257 270 257 253 244 248 267 261 244 235 245 253 254 252 250 247 244 241 237 226 218 204 194 185 174 170 155 160 153 155 150 145 148 151 151 146 151 154 154 153 164 164 160 151 157 145 140 144
226 260 273 285 253 256 246 270 280 260 248 249 253 255 252 248 243 238 230 224 220 216 196 183 178 172 170 153 151 153 149 145 145 152 154 151 148 155 155 154 145 166 170 164 159 160 155 149 147
257 270 274 278 284 266 263 269 276 270 261 254 252 252 251 245 240 233 216 205 203 207 193 181 168 157 156 145 139 145 136 138 143 152 157 156 155 160 156 152 158 166 173 167 164 156 151 148 147
265 267 275 279 289 280 272 275 277 270 257 253 250 246 243 242 234 217 202 191 185 188 186 179 171 155 148 153 157 165 153 150 153 156 157 165 165 163 160 153 164 173 178 175 168 158 154 146 151
246 262 273 282 283 282 283 281 277 261 247 248 248 241 235 232 220 213 203 186 184 186 184 174 177 169 166 165 167 189 152 154 148 152 162 171 175 171 165 166 171 177 173 177 173 165 164 161 184
240 248 266 283 306 271 284 278 257 246 238 239 241 239 233 224 220 216 208 191 186 193 193 179 176 178 170 162 147 140 128 133 147 165 172 185 183 179 177 178 178 178 180 182 184 180 182 176 180
252 245 258 273 287 286 296 292 277 255 243 235 232 230 227 218 212 214 210 195 191 195 195 186 178 177 169 167 168 172 180 174 178 177 176 178 183 183 185 184 181 180 187 189 196 194 194 190 186
247 263 252 259 267 273 249 259 275 250 251 242 232 225 217 212 209 210 207 199 194 190 193 188 182 177 172 176 180 181 188 175 158 165 171 172 177 181 185 190 188 188 191 194 202 200 199 202 200
240 251 240 230 238 255 242 243 272 245 249 247 234 225 218 206 204 206 200 192 190 186 186 186 184 183 176 174 184 184 180 170 161 173 176 178 178 185 191 197 197 195 192 195 204 206 206 208 208
215 242 262 240 228 249 192 240 257 274 266 259 251 236 227 212 206 199 193 190 186 181 183 184 182 181 177 177 188 185 180 179 179 181 184 183 184 190 197 203 204 201 200 202 204 206 209 211 210
206 228 245 273 275 283 220 245 265 298 286 269 253 237 224 214 207 204 198 191 187 180 184 183 185 180 177 181 186 185 180 184 188 189 187 192 195 196 196 205 210 207 202 203 206 210 212 211 216
199 210 249 266 278 272 254 259 276 264 271 251 227 212 212 210 208 206 199 192 189 180 186 189 185 180 179 181 179 183 183 185 187 191 192 193 194 192 195 202 204 204 205 208 205 214 213 212 215
246 184 188 220 259 269 270 261 269 264 264 259 244 227 219 216 213 208 199 193 188 181 182 187 186 184 182 180 180 181 186 185 186 193 197 198 195 191 196 201 206 205 205 208 213 216 216 218 217
180 192 211 224 253 266 279 273 247 254 271 267 264 255 232 225 215 207 200 193 188 182 181 181 181 182 181 182 184 182 180 186 192 196 201 200 197 194 199 204 207 208 210 209 216 223 217 223 224
217 212 200 221 231 239 268 275 74 258 290 281 285 291 268 243 220 207 196 190 190 188 187 184 184 186 186 185 186 185 177 189 196 197 199 198 200 201 203 206 210 212 216 219 224 226 225 226 229